星链-6049 (STARLINK-6049 )

导读

STARLINK-6049是美国太空探索技术公司(SpaceX)星链互联网星座的卫星,于2023年5月31日在美国发射升空,属于星链低轨卫星互联网组网卫星,主要为全球提供高速互联网接入服务,星链星座已批量部署多批次卫星,该星为星链星座组网运营提供了支撑。

基本信息
目录编号:
56796
目录名称:
STARLINK-6049
国际标识:
2023-078AF
轨道中心:
EARTH
卫星名称:
星链-6049
卫星全名:
星链-6049 (STARLINK-6049 )
卫星状态:
在轨 (已飞行1110 天)
发射日期:
2023-05-31 UTC
国别 :
美国 (US)
星等 :
--
轨道信息
数据来源 国际轨道数据 AOE轨道数据
星历时间 2026-06-14T20:44:49+0800
9小时前
查看轨道信息
2026-06-14T04:00:00+0800
1天前
查看轨道信息
半长轴 6950.258km 6950.189km
偏心率 0.0003011 0.0003277
轨道倾角 69.999° 70.001°
近地点辐角 264.343° 261.745°
升交点赤经 100.385° 102.145°
平近点角 95.738° 295.594°
近地点 570.028km 569.774km
远地点 574.214km 574.33km
周期 96.108分钟 96.107分钟
每日圈数 14.98309 14.983313
详细信息
固有亮度:
5
最大亮度:
2.5
卫星平台:
Starlink v1.5
覆盖范围:
全球
运营商:
太空探索技术公司
运营商所在国:
美国
制造商(研发单位):
太空探索技术公司
制造商所在国:
美国
使用方式:
暂无
卫星简介
星链(Starlink)计划是由太空探索技术公司(SpaceX)提出的一个巨型低轨卫星互联网星座项目,计划在2019年至2024年间在太空搭建由约1.2万颗卫星组成的“星链”网络,其中1584颗将部署在地球上空550千米处的近地轨道,并从2020年开始工作。该卫星仍在工作。
2D轨道图
3D轨道图
轨道高度分析图
轨道倾角分析图
轨道综合分析图
查看轨道综合分析图